Date,TemperatureHighF,TemperatureAvgF,TemperatureLowF,DewpointHighF,DewpointAvgF,DewpointLowF,HumidityHigh,HumidityAvg,HumidityLow,PressureMaxIn,PressureMinIn,WindSpeedMaxMPH,WindSpeedAvgMPH,GustSpeedMaxMPH,PrecipitationSumIn
2013-1-1,48,43,38,44,33,24,86,70,57,29.64,29.38,45,7,45,0.00
2013-1-2,44,39,35,27,24,22,67,57,46,29.70,29.58,27,4,32,0.00
2013-1-3,49,42,34,28,24,22,68,51,37,29.82,29.67,19,2,36,0.20
2013-1-4,50,47,43,32,27,25,53,46,39,29.85,29.70,6,1,7,0.00
2013-1-5,54,48,42,38,34,31,74,59,48,29.70,29.55,7,2,11,0.00
2013-1-6,55,45,37,32,26,20,73,50,27,29.76,29.61,10,3,13,0.12
2013-1-7,56,45,34,32,27,23,68,50,35,29.67,29.44,8,1,10,0.00
2013-1-8,51,49,48,47,40,29,93,72,46,29.44,29.32,8,2,19,1.50
2013-1-9,57,54,49,56,53,47,96,94,93,29.46,29.26,57,6,72,1.36
2013-1-10,60,56,52,56,49,42,94,77,55,29.32,29.26,25,4,38,0.04
2013-1-11,68,59,50,59,47,42,82,65,45,29.29,29.11,21,4,25,0.08
2013-1-12,66,55,38,63,48,27,91,79,57,29.29,29.02,28,6,33,0.16
2013-1-13,41,36,33,27,20,14,66,51,39,29.61,29.29,17,7,30,0.00
2013-1-14,46,37,30,21,16,12,50,42,32,29.67,29.55,11,4,15,0.00
2013-1-15,40,37,32,29,22,14,82,56,40,29.58,29.49,11,4,14,0.16
2013-1-16,49,40,32,22,17,14,51,40,27,29.64,29.49,12,3,12,0.00
2013-1-17,59,48,37,29,25,21,58,42,27,29.82,29.58,17,2,18,0.00
2013-1-18,61,49,37,34,29,25,67,48,29,29.85,29.61,10,2,12,0.00
2013-1-19,65,53,44,43,36,30,72,54,36,29.61,29.46,10,3,12,0.00
2013-1-20,67,54,44,48,38,31,79,57,31,29.55,29.41,7,1,10,0.00
2013-1-21,55,49,41,40,27,20,75,44,33,29.64,29.46,17,4,28,0.00
2013-1-22,64,53,41,43,33,22,66,48,39,29.64,29.49,7,2,10,0.00
2013-1-23,72,61,52,54,48,43,79,63,44,29.61,29.46,11,3,13,0.00
2013-1-24,75,64,56,57,50,40,84,61,42,29.52,29.35,8,3,10,0.00
2013-1-25,59,52,48,48,40,34,86,64,51,29.55,29.38,9,3,12,0.00
2013-1-26,56,51,48,48,43,34,84,73,53,29.55,29.44,7,1,8,0.00
2013-1-27,73,62,52,63,55,47,92,77,50,29.44,29.26,13,4,23,0.00
2013-1-28,76,71,66,64,60,56,85,72,53,29.35,29.17,14,6,18,0.00
2013-1-29,78,67,56,65,56,28,81,68,36,29.17,28.79,17,6,22,0.36
2013-1-30,56,49,42,33,23,16,54,37,26,29.49,29.05,19,7,30,0.00
2013-1-31,67,51,38,27,23,20,51,35,20,29.64,29.41,12,3,16,0.08
2013-2-1,63,47,34,33,23,13,48,38,28,29.73,29.49,11,3,15,0.00
2013-2-2,66,56,49,43,32,25,67,42,24,29.67,29.46,11,3,15,0.00
2013-2-3,69,56,42,38,29,24,65,39,22,29.67,29.32,8,2,11,0.00
2013-2-4,71,63,57,53,45,24,76,54,26,29.32,29.11,11,4,11,0.00
2013-2-5,68,62,60,61,56,53,90,81,64,29.35,29.23,8,1,9,0.00
2013-2-6,74,65,58,65,55,48,89,72,41,29.35,29.17,12,4,20,0.00
2013-2-7,78,65,56,59,49,32,83,60,21,29.44,29.14,18,7,25,0.00
2013-2-8,63,55,47,40,29,22,58,39,21,29.58,29.44,11,3,16,0.00
2013-2-9,59,53,51,56,44,30,90,71,42,29.46,29.08,10,3,15,0.00
2013-2-10,67,60,52,62,37,22,93,50,20,29.35,28.99,17,4,24,0.95
2013-2-11,58,54,50,35,28,21,56,38,27,29.49,29.35,12,2,13,0.00
2013-2-12,52,49,43,47,43,35,86,78,56,29.38,29.20,11,3,18,0.56
2013-2-13,58,48,41,36,32,26,76,55,31,29.49,29.35,12,4,17,0.12
2013-2-14,67,54,41,41,32,25,73,48,23,29.44,29.32,7,2,9,0.00
2013-2-15,53,49,42,34,23,15,54,37,26,29.73,29.44,13,5,18,0.00
2013-2-16,57,48,42,24,21,19,45,35,25,29.76,29.52,8,2,9,0.00
2013-2-17,70,56,42,41,30,24,59,39,22,29.49,29.23,17,4,22,0.04
2013-2-18,76,63,53,54,38,23,73,44,21,29.46,29.08,23,8,27,0.20
2013-2-19,62,54,46,28,23,19,42,30,21,29.67,29.46,10,3,12,0.28
2013-2-20,54,48,44,39,34,26,72,60,35,29.49,29.11,13,4,15,0.12
2013-2-21,67,54,45,52,35,23,90,54,20,29.29,28.93,19,5,21,0.00
2013-2-22,49,43,35,32,22,17,60,45,31,29.49,29.26,17,4,23,0.16
2013-2-23,55,45,36,25,22,20,55,41,29,29.44,29.26,13,2,14,0.12
2013-2-24,69,55,40,39,31,24,62,42,25,29.26,28.93,12,4,17,0.00
2013-2-25,64,54,43,48,35,23,69,51,26,29.02,28.82,24,7,30,0.04
2013-2-26,58,49,42,29,26,23,59,43,27,29.23,29.02,20,8,31,0.32
2013-2-27,58,49,40,30,23,16,64,39,22,29.58,29.23,29,7,31,0.08
2013-2-28,60,48,38,24,22,17,54,36,24,29.64,29.52,21,7,32,0.00
2013-3-1,56,47,39,26,23,20,50,39,27,29.64,29.52,13,5,16,0.20
2013-3-2,56,44,34,24,20,15,57,40,25,29.76,29.58,18,6,26,0.00
2013-3-3,70,56,39,37,27,21,53,35,22,29.55,29.14,15,5,20,0.00
2013-3-4,84,68,56,41,37,31,55,35,16,29.14,28.93,14,6,22,0.08
2013-3-5,63,52,46,37,22,14,50,31,20,29.70,29.14,21,8,27,0.00
2013-3-6,62,50,39,23,19,14,44,30,19,29.79,29.55,11,3,13,0.00
2013-3-7,71,58,44,32,25,18,40,29,19,29.58,29.41,13,4,15,0.00
2013-3-8,63,60,56,55,48,32,80,67,37,29.52,29.32,10,4,13,0.00
2013-3-9,69,64,61,64,58,52,88,81,72,29.32,28.99,15,5,16,1.26
2013-3-10,63,54,46,59,34,24,88,50,34,29.44,29.08,24,8,27,0.24
2013-3-11,60,49,38,27,23,16,59,38,21,29.46,29.35,20,4,20,0.16
2013-3-12,68,55,43,29,25,22,47,32,20,29.64,29.38,10,2,14,0.08
2013-3-13,70,58,47,34,30,27,59,36,23,29.79,29.64,9,2,11,0.04
2013-3-14,77,64,50,39,34,28,51,35,22,29.67,29.49,13,4,15,0.12
2013-3-15,81,69,58,52,41,32,71,41,20,29.49,29.23,14,5,20,0.16
2013-3-16,81,70,60,53,48,40,69,47,33,29.23,29.02,15,6,17,0.00
2013-3-17,73,69,63,59,49,40,76,52,33,29.14,29.02,11,4,14,0.00
2013-3-18,69,64,58,61,42,32,86,49,32,29.35,28.99,14,4,17,0.00
2013-3-19,70,61,51,38,31,26,53,34,25,29.46,29.29,13,4,13,0.04
2013-3-20,68,60,50,33,28,23,48,31,22,29.64,29.38,11,3,14,0.00
2013-3-21,70,63,55,55,38,22,68,41,27,29.38,28.90,13,5,19,0.00
2013-3-22,66,55,49,58,47,37,85,74,49,29.20,28.90,12,4,17,0.00
2013-3-23,55,52,48,49,46,43,87,80,73,29.20,29.02,13,3,21,0.08
2013-3-24,55,48,40,47,24,14,86,43,26,29.52,29.17,21,9,26,0.16
2013-3-25,56,46,37,20,16,13,45,31,20,29.76,29.52,16,6,19,0.00
2013-3-26,60,49,37,23,19,14,47,31,24,29.85,29.61,7,2,9,0.40
2013-3-27,72,58,45,37,28,18,42,32,23,29.64,29.41,13,4,19,0.00
2013-3-28,71,64,54,53,47,37,71,56,42,29.55,29.41,10,4,12,0.12
2013-3-29,78,69,62,56,52,49,74,58,36,29.52,29.35,12,4,15,0.04
2013-3-30,78,69,59,64,57,52,87,67,48,29.46,29.23,12,2,15,2.01
2013-3-31,75,68,63,62,53,40,85,61,33,29.32,29.14,19,3,19,0.04
2013-4-1,80,68,55,54,44,36,76,47,21,29.41,29.26,7,1,9,0.08
2013-4-2,69,66,56,61,54,38,81,67,44,29.35,29.23,15,4,18,0.32
2013-4-3,57,51,46,48,45,38,87,81,50,29.49,29.26,53,4,53,0.88
2013-4-4,53,48,45,42,38,35,86,69,53,29.55,29.46,25,6,28,0.12
2013-4-5,70,57,44,45,40,36,75,55,32,29.58,29.38,7,2,21,0.00
2013-4-6,77,66,57,54,47,40,66,51,38,29.38,29.17,12,3,14,0.00
2013-4-7,72,68,63,59,57,53,78,68,60,29.26,29.08,10,3,14,0.00
2013-4-8,76,69,66,61,58,56,76,68,58,29.11,29.05,12,4,17,0.00
2013-4-9,80,76,71,64,60,58,73,58,48,29.05,28.96,14,4,17,0.00
2013-4-10,73,50,42,65,40,30,83,71,44,29.32,29.05,17,7,28,0.28
2013-4-11,63,52,43,38,30,24,60,44,28,29.32,29.17,12,3,13,0.08
2013-4-12,77,62,47,47,39,34,75,47,21,29.35,29.20,0,0,3,0.00
2013-4-13,79,68,57,46,42,36,64,40,22,29.35,29.11,8,2,14,0.12
2013-4-14,83,71,60,61,54,44,76,56,40,29.14,28.87,9,2,13,0.00
2013-4-15,88,77,69,65,61,57,82,61,36,29.08,28.96,8,3,19,0.00
2013-4-16,88,78,71,65,61,56,75,58,35,29.23,29.08,10,3,13,0.00
2013-4-17,86,78,73,68,64,59,84,64,42,29.23,28.96,12,3,21,0.00
2013-4-18,76,57,49,69,41,28,83,58,35,29.49,28.87,21,8,27,1.31
2013-4-19,66,55,44,37,27,20,57,37,20,29.61,29.46,14,4,18,0.12
2013-4-20,73,60,47,37,31,26,57,36,21,29.55,29.35,7,2,12,0.00
2013-4-21,73,64,53,49,41,31,61,45,34,29.52,29.41,6,1,10,0.00
2013-4-22,80,66,58,53,48,42,72,52,34,29.44,29.17,13,1,15,0.00
2013-4-23,69,57,45,60,46,35,80,67,56,29.52,29.14,14,4,19,0.00
2013-4-24,64,52,41,39,31,27,75,47,26,29.64,29.52,13,5,19,0.08
2013-4-25,76,65,54,38,33,28,43,32,21,29.67,29.49,7,2,11,0.00
2013-4-26,77,68,62,63,51,36,75,54,34,29.49,29.32,7,1,11,0.12
2013-4-27,74,70,64,63,55,0,82,62,41,29.46,29.32,11,3,15,0.00
2013-4-28,83,69,57,60,55,50,81,63,41,29.38,29.20,7,1,9,0.00
2013-4-29,87,76,64,66,55,48,82,52,28,29.26,29.11,8,1,13,0.00
2013-4-30,84,74,64,63,56,52,82,57,38,29.17,29.08,11,1,15,0.00
2013-5-1,83,74,68,64,60,55,81,63,41,29.29,29.11,8,2,13,0.00
2013-5-2,71,54,46,59,41,30,74,61,49,29.67,29.26,18,8,26,0.24
2013-5-3,68,56,42,31,27,22,59,36,20,29.67,29.38,20,6,21,0.20
2013-5-4,75,62,46,40,31,21,75,35,16,29.38,29.23,16,4,27,0.04
2013-5-5,71,61,51,42,36,32,53,41,29,29.49,29.38,13,4,16,0.00
2013-5-6,78,67,54,49,44,40,70,47,27,29.46,29.32,7,1,11,0.08
2013-5-7,86,74,61,57,48,40,80,44,21,29.41,29.26,9,1,14,0.00
2013-5-8,87,76,66,53,48,40,59,39,21,29.32,29.20,11,2,19,0.00
2013-5-9,76,70,68,66,61,49,86,74,41,29.32,29.17,6,1,12,0.44
2013-5-10,84,73,67,66,58,47,89,63,34,29.38,29.20,10,3,18,0.20
2013-5-11,81,72,64,56,45,34,74,41,20,29.49,29.38,10,3,17,0.16
2013-5-12,81,70,62,48,35,30,51,29,17,29.61,29.46,9,2,12,0.00
2013-5-13,89,74,59,46,40,35,48,32,18,29.58,29.44,9,2,13,0.00
2013-5-14,88,77,65,58,49,41,72,41,20,29.49,29.32,10,2,14,0.00
2013-5-15,77,72,64,67,63,54,89,74,50,29.38,29.08,10,2,19,1.19
2013-5-16,83,72,64,70,64,60,89,77,57,29.17,29.08,7,1,13,0.08
2013-5-17,91,81,73,72,67,63,87,66,41,29.17,29.11,7,1,12,0.00
2013-5-18,92,82,73,69,65,62,79,58,37,29.23,29.08,12,3,20,0.00
2013-5-19,89,81,72,65,62,60,76,55,40,29.17,28.99,26,3,26,0.00
2013-5-20,91,81,74,66,64,61,73,57,39,29.14,28.96,12,3,24,0.00
2013-5-21,81,72,64,69,63,58,85,73,53,29.14,28.99,16,4,30,0.71
2013-5-22,65,65,65,58,58,58,80,80,80,29.14,29.14,7,7,0,0.00
2013-5-23,88,76,65,68,62,58,80,63,41,29.38,29.14,9,4,13,0.00
2013-5-24,86,78,70,73,67,59,81,70,50,29.52,29.32,7,1,16,0.28
2013-5-25,84,74,69,72,66,60,88,77,52,29.52,29.38,9,1,12,0.16
2013-5-26,87,78,72,72,67,63,89,70,45,29.41,29.26,9,1,10,0.08
2013-5-27,87,78,72,66,64,60,77,61,42,29.32,29.11,7,2,18,0.00
2013-5-28,85,79,72,67,62,59,80,58,43,29.23,29.11,10,2,24,0.00
2013-5-29,85,77,72,70,67,65,86,72,52,29.14,29.02,10,2,15,0.28
2013-5-30,88,79,73,70,67,63,83,67,44,29.14,29.02,11,3,22,0.00
2013-5-31,91,82,76,71,68,62,78,62,40,29.17,29.02,10,3,17,0.00
2013-6-1,88,80,76,70,67,62,75,65,50,29.29,29.05,14,3,18,0.00
2013-6-2,85,76,69,62,49,39,64,41,20,29.44,29.29,13,3,16,0.04
2013-6-3,92,77,67,59,52,44,67,45,20,29.35,29.17,8,1,9,0.00
2013-6-4,90,90,90,47,47,47,23,23,23,29.17,29.17,0,0,0,0.00
2013-6-5,91,86,81,63,60,57,54,42,32,29.17,29.08,4,0,7,0.00
2013-6-6,81,74,71,68,64,59,86,71,53,29.29,29.14,13,3,17,1.07
2013-6-7,86,75,0,62,53,0,81,52,23,29.35,29.23,11,2,14,0.00
2013-6-8,90,78,66,62,54,50,81,46,27,29.29,29.11,5,0,10,0.12
2013-6-9,90,79,69,67,62,53,87,58,36,29.29,29.17,14,2,18,0.95
2013-6-10,98,84,71,71,59,44,80,49,16,29.29,29.23,9,1,15,0.00
2013-6-11,94,85,76,73,64,57,81,52,31,29.35,29.26,8,1,15,0.00
2013-6-12,96,86,76,72,64,57,79,52,30,29.38,29.26,8,1,13,0.00
2013-6-13,98,87,76,69,62,56,72,46,26,29.38,29.23,4,0,10,0.00
2013-6-14,97,87,77,68,63,55,70,47,27,29.32,29.23,0,0,0,0.04
2013-6-15,90,83,76,71,67,64,77,59,45,29.35,29.23,7,1,12,0.00
2013-6-16,96,86,76,72,64,56,80,51,28,29.35,29.20,7,0,10,0.00
2013-6-17,94,82,71,75,66,59,86,59,33,29.38,29.17,15,2,19,0.47
2013-6-18,86,78,71,71,67,60,88,71,43,29.35,29.23,7,2,13,0.16
2013-6-19,93,82,72,74,67,62,87,62,40,29.32,29.20,6,0,11,0.00
2013-6-20,96,86,76,70,63,55,79,50,27,29.38,29.26,5,0,12,0.00
2013-6-21,96,87,77,71,61,54,76,45,26,29.41,29.29,11,1,16,0.00
2013-6-22,96,86,75,70,62,54,76,46,28,29.38,29.20,11,1,13,0.00
2013-6-23,96,87,77,69,61,54,73,45,26,29.32,29.20,9,1,12,0.00
2013-6-24,97,87,77,70,61,54,74,44,26,29.38,29.20,9,2,16,0.00
2013-6-25,97,86,77,70,61,53,76,46,26,29.32,29.14,12,2,21,0.00
2013-6-26,98,87,77,68,63,57,71,46,28,29.29,29.17,10,2,18,0.00
2013-6-27,100,88,79,70,63,56,69,44,24,29.35,29.20,11,1,13,0.00
2013-6-28,102,88,79,62,57,47,53,37,17,29.29,29.14,8,1,13,0.00
2013-6-29,97,87,78,69,56,44,74,40,17,29.23,29.14,9,1,13,0.00
2013-6-30,92,84,77,62,50,42,59,33,19,29.29,29.14,12,3,17,0.00
2013-7-1,89,80,72,56,49,42,56,36,20,29.38,29.29,9,3,13,0.00
2013-7-2,89,80,70,58,46,38,66,34,17,29.44,29.35,10,2,18,0.00
2013-7-3,93,80,68,58,46,38,65,34,16,29.41,29.26,10,1,10,0.04
2013-7-4,96,84,72,60,50,40,59,34,16,29.35,29.23,7,2,13,0.00
2013-7-5,97,86,74,61,51,42,57,33,17,29.35,29.20,10,1,11,0.00
2013-7-6,98,86,75,65,54,43,71,36,17,29.29,29.17,7,1,12,0.00
2013-7-7,98,87,76,67,58,50,64,39,21,29.35,29.23,10,1,12,0.00
2013-7-8,98,86,78,71,64,55,73,51,26,29.44,29.32,7,1,13,0.00
2013-7-9,100,88,78,71,57,45,78,40,16,29.46,29.29,10,1,15,0.00
2013-7-10,102,91,81,69,58,46,65,37,16,29.38,29.23,11,1,12,0.00
2013-7-11,103,89,81,67,61,51,61,41,18,29.32,29.20,8,1,13,0.00
2013-7-12,102,89,77,69,61,50,75,45,19,29.32,29.20,10,1,24,0.00
2013-7-13,100,90,79,68,59,49,67,38,21,29.35,29.20,10,2,14,0.00
2013-7-14,84,75,70,68,62,48,85,68,30,29.38,29.23,7,1,10,0.24
2013-7-15,74,71,69,71,67,64,90,87,85,29.41,29.32,5,1,7,0.68
2013-7-16,90,78,71,74,69,61,91,76,40,29.55,29.41,9,2,14,0.36
2013-7-17,92,78,73,75,69,60,90,75,37,29.55,29.46,9,1,16,0.40
2013-7-18,94,82,72,75,66,58,88,62,32,29.52,29.35,4,0,7,0.12
2013-7-19,97,84,75,72,66,57,80,57,27,29.38,29.26,7,0,12,0.00
2013-7-20,97,82,75,74,67,56,83,63,27,29.32,29.17,4,0,9,0.66
2013-7-21,97,85,75,73,66,57,83,58,29,29.26,29.17,7,1,10,0.00
2013-7-22,98,87,78,73,66,58,80,54,29,29.32,29.17,11,2,18,0.04
2013-7-23,98,88,79,73,66,56,79,51,30,29.32,29.14,11,2,14,0.08
2013-7-24,96,86,77,68,62,56,66,48,27,29.41,29.20,10,3,12,0.00
2013-7-25,95,86,77,69,65,60,69,52,33,29.38,29.29,7,1,11,0.08
2013-7-26,93,84,78,77,68,62,84,59,36,29.35,29.20,11,1,15,0.08
2013-7-27,91,81,73,68,60,50,78,52,27,29.35,29.23,10,3,15,0.12
2013-7-28,93,83,72,69,62,56,79,52,29,29.32,29.20,0,0,4,0.00
2013-7-29,96,86,78,72,65,52,77,52,28,29.32,29.23,8,1,15,0.00
2013-7-30,98,87,78,70,62,54,77,46,27,29.41,29.26,7,2,14,0.00
2013-7-31,101,89,79,68,61,56,62,41,25,29.41,29.23,9,1,11,0.00
2013-8-1,101,90,81,72,63,51,70,44,19,29.35,29.20,8,1,11,0.00
2013-8-2,102,90,81,67,60,48,61,39,18,29.29,29.17,7,1,13,0.00
2013-8-3,100,89,79,69,59,48,70,39,18,29.35,29.26,7,1,14,0.00
2013-8-4,100,89,80,70,61,52,68,42,22,29.41,29.26,9,1,11,0.00
2013-8-5,102,90,81,67,58,48,62,37,17,29.35,29.17,7,1,13,0.00
2013-8-6,102,91,79,69,57,46,71,36,17,29.23,29.11,9,1,13,0.00
2013-8-7,104,92,80,68,58,48,64,36,17,29.23,29.08,9,1,17,0.04
2013-8-8,100,90,81,69,59,50,66,37,19,29.23,29.08,10,1,17,0.08
2013-8-9,102,90,81,69,58,45,61,37,16,29.29,29.14,12,1,20,0.00
2013-8-10,96,87,78,73,64,55,82,50,28,29.41,29.29,12,2,15,0.04
2013-8-11,101,89,0,70,61,0,68,41,20,29.41,29.26,6,1,15,0.00
2013-8-12,100,89,79,69,62,54,69,43,23,29.38,29.23,11,1,11,0.00
2013-8-13,98,85,77,72,64,55,83,53,26,29.35,29.20,11,2,28,2.68
2013-8-14,91,79,75,76,71,64,89,76,41,29.38,29.29,8,1,13,0.24
2013-8-15,89,80,73,68,59,53,74,51,33,29.41,29.29,8,2,13,0.00
2013-8-16,88,78,70,67,59,54,83,54,32,29.41,29.29,12,2,14,0.04
2013-8-17,89,79,68,62,53,46,79,44,24,29.44,29.32,8,2,11,0.04
2013-8-18,91,80,70,63,55,50,71,45,26,29.44,29.32,8,1,11,0.00
2013-8-19,94,83,73,63,54,46,65,41,20,29.41,29.26,8,1,9,0.00
2013-8-20,95,84,73,64,53,43,73,39,18,29.38,29.26,5,0,8,0.00
2013-8-21,94,84,75,66,59,53,68,45,27,29.44,29.32,7,1,11,0.00
2013-8-22,98,87,78,69,60,54,68,42,25,29.41,29.26,7,1,9,0.00
2013-8-23,99,88,79,70,60,50,66,41,20,29.38,29.23,7,1,12,0.00
2013-8-24,98,88,78,69,59,45,72,40,17,29.41,29.29,8,2,14,0.04
2013-8-25,97,87,78,66,59,52,63,40,22,29.49,29.38,10,2,17,0.12
2013-8-26,96,86,77,68,59,49,69,44,21,29.49,29.38,12,2,16,0.00
2013-8-27,93,83,75,70,64,54,80,55,27,29.46,29.35,11,1,13,0.00
2013-8-28,97,85,74,70,59,48,73,46,21,29.44,29.32,9,1,12,0.00
2013-8-29,99,88,76,65,56,46,65,38,17,29.41,29.29,8,1,13,0.00
2013-8-30,101,89,78,63,54,43,59,34,16,29.35,29.20,9,1,11,0.00
2013-8-31,98,84,79,66,60,52,66,45,22,29.26,29.20,6,0,13,0.00
2013-9-7,85,83,82,60,60,59,47,45,42,29.32,29.29,4,0,6,0.00
2013-9-8,96,84,74,69,59,48,74,46,22,29.32,29.20,9,1,13,0.00
2013-9-9,94,85,77,64,58,52,63,42,26,29.32,29.23,5,0,11,0.00
2013-9-10,92,83,76,70,60,47,78,49,22,29.44,29.32,8,0,13,0.00
2013-9-11,95,82,74,71,63,56,74,55,27,29.46,29.35,9,0,12,0.08
2013-9-12,93,84,74,67,60,53,74,48,28,29.41,29.26,0,0,0,0.00
2013-9-13,97,85,78,66,60,54,64,46,26,29.32,29.17,10,1,13,0.00
2013-9-14,92,84,76,61,55,51,57,39,27,29.32,29.20,15,3,16,0.00
2013-9-15,93,84,75,64,56,51,52,40,28,29.38,29.26,7,2,11,0.00
2013-9-16,95,85,76,69,57,46,67,42,20,29.44,29.29,10,1,11,0.00
2013-9-17,91,84,77,67,59,53,71,44,28,29.41,29.26,6,0,11,0.16
2013-9-18,95,85,77,69,58,47,66,43,20,29.35,29.20,10,1,14,0.00
2013-9-19,88,82,74,70,64,56,85,56,39,29.35,29.20,9,1,15,1.30
2013-9-20,74,73,70,71,69,62,91,86,76,29.26,29.17,11,3,13,1.12
2013-9-21,82,72,63,62,46,35,78,45,20,29.32,29.20,10,3,16,0.16
2013-9-22,83,72,61,56,47,38,74,45,21,29.29,29.14,7,0,10,0.00
2013-9-23,86,74,63,54,47,38,67,42,20,29.20,29.08,7,0,12,0.00
2013-9-24,91,78,68,65,51,35,81,45,17,29.26,29.17,18,2,18,0.00
2013-9-25,91,77,64,58,46,38,70,37,17,29.26,29.11,7,0,7,0.08
2013-9-26,92,80,70,55,47,41,51,33,18,29.23,29.14,9,1,12,0.00
2013-9-27,87,80,72,67,61,52,66,54,41,29.26,29.17,7,1,13,0.04
2013-9-28,84,76,69,73,68,60,84,76,62,29.38,29.20,11,2,15,0.32
2013-9-29,80,71,66,60,51,38,75,51,23,29.41,29.26,10,2,13,0.00
2013-9-30,86,72,62,60,51,39,78,51,20,29.26,29.14,0,0,0,0.00
2013-10-1,87,76,68,71,61,52,88,63,31,29.29,29.17,6,0,11,0.00
2013-10-2,88,79,74,70,66,61,85,66,41,29.32,29.20,11,1,13,0.00
2013-10-3,89,80,74,71,66,59,83,64,39,29.26,29.14,7,1,16,0.00
2013-10-4,88,80,74,69,64,58,83,62,39,29.26,29.17,13,2,15,0.00
2013-10-5,79,67,56,69,54,37,81,65,37,29.46,29.20,14,3,18,0.24
2013-10-6,74,62,53,50,39,25,82,50,18,29.46,29.38,13,3,15,0.00
2013-10-7,79,65,53,50,39,31,71,41,20,29.49,29.38,0,0,0,0.00
2013-10-8,80,67,55,50,41,34,75,43,20,29.44,29.32,4,0,7,0.00
2013-10-9,82,70,61,54,48,42,70,48,27,29.41,29.29,7,1,14,0.00
2013-10-10,83,72,63,62,54,49,76,54,34,29.41,29.23,7,1,16,0.00
2013-10-11,85,76,70,67,63,56,78,66,48,29.29,29.14,10,1,14,0.00
2013-10-12,89,78,72,74,68,58,85,72,39,29.41,29.20,8,1,11,0.08
2013-10-13,75,72,70,68,65,63,86,79,70,29.52,29.38,7,1,9,0.00
2013-10-14,73,71,70,70,68,64,91,88,76,29.46,29.26,5,0,7,0.56
2013-10-15,77,68,56,73,63,51,90,85,73,29.41,29.23,11,2,14,0.84
2013-10-16,66,60,55,54,46,38,89,65,39,29.44,29.35,10,4,11,0.28
2013-10-17,71,60,51,48,41,34,70,52,26,29.46,29.32,6,1,11,0.00
2013-10-18,70,62,56,54,49,45,75,63,42,29.44,29.23,10,1,16,0.00
2013-10-19,65,55,46,46,36,29,72,51,26,29.55,29.41,13,4,16,0.12
2013-10-20,71,59,47,48,39,33,75,51,25,29.41,29.20,7,1,11,0.00
2013-10-21,72,63,58,58,48,42,73,60,46,29.46,29.23,9,2,14,0.00
2013-10-22,74,61,49,44,39,31,74,49,22,29.52,29.35,7,1,10,0.00
2013-10-23,80,65,53,52,44,36,74,49,22,29.46,29.35,0,0,0,0.00
2013-10-24,77,66,55,49,43,36,70,45,26,29.61,29.41,8,1,11,0.00
2013-10-25,69,62,55,43,40,36,63,45,34,29.73,29.58,9,2,11,0.00
2013-10-26,74,65,58,59,52,42,83,64,50,29.58,29.35,11,1,13,1.34
2013-10-27,69,64,62,60,56,53,86,75,57,29.46,29.35,7,1,9,0.00
2013-10-28,75,67,59,65,60,52,87,77,63,29.44,29.32,6,0,9,0.00
2013-10-29,75,72,69,66,65,64,85,80,72,29.41,29.32,7,1,12,0.00
2013-10-30,72,70,67,68,65,63,90,85,80,29.35,29.14,7,2,13,0.04
2013-10-31,73,68,58,66,48,30,90,56,21,29.23,29.02,18,3,28,0.00
2013-11-1,74,63,52,52,42,36,77,50,31,29.44,29.17,8,2,12,0.08
2013-11-2,68,60,53,39,34,26,56,39,23,29.64,29.44,11,2,13,0.00
2013-11-3,68,57,48,41,36,32,67,49,28,29.55,29.32,8,1,10,0.00
2013-11-4,62,60,58,58,51,41,89,73,49,29.44,29.32,7,1,9,0.68
2013-11-5,69,66,61,66,62,58,92,90,87,29.38,29.26,7,1,11,0.24
2013-11-6,70,58,50,67,45,34,91,64,40,29.70,29.29,12,4,19,0.40
2013-11-7,65,53,43,41,36,27,72,53,26,29.85,29.70,7,1,9,0.12
2013-11-8,66,57,46,47,38,32,75,52,29,29.73,29.46,9,1,11,0.00
2013-11-9,69,62,58,48,44,39,66,51,44,29.55,29.44,7,1,10,0.00
2013-11-10,68,61,54,49,44,41,72,55,44,29.67,29.55,0,0,6,0.00
2013-11-11,72,61,50,54,47,43,81,64,41,29.61,29.49,4,0,5,0.00
2013-11-12,62,52,41,54,29,13,75,45,25,30.03,29.61,16,5,19,0.00
2013-11-13,54,44,35,24,19,15,53,38,26,30.03,29.70,6,1,8,0.08
2013-11-14,60,50,36,42,28,22,65,45,24,29.70,29.35,7,1,11,0.00
2013-11-15,71,62,54,56,49,42,80,62,41,29.35,29.17,9,1,11,0.00
2013-11-16,76,69,62,66,60,56,83,73,53,29.20,29.02,12,2,14,0.00
2013-11-17,83,74,66,68,50,28,85,50,19,29.35,29.02,20,3,23,0.00
2013-11-18,69,64,58,29,26,23,33,23,19,29.52,29.35,8,2,11,0.00
2013-11-19,68,62,58,33,28,25,35,28,22,29.52,29.35,8,2,11,0.08
2013-11-20,65,59,52,51,38,28,66,45,32,29.35,29.23,7,1,9,0.00
2013-11-21,73,64,45,68,58,38,87,81,67,29.58,29.29,16,2,21,0.16
2013-11-22,45,39,37,38,33,29,87,79,70,29.79,29.55,15,7,20,0.32
2013-11-23,43,40,38,36,32,20,88,74,46,29.88,29.76,11,4,15,0.04
2013-11-24,39,37,34,23,20,15,56,50,41,29.91,29.67,10,3,16,0.00
2013-11-25,41,39,36,34,31,21,80,75,50,29.67,29.46,9,2,13,0.52
2013-11-26,52,43,38,34,28,18,84,57,30,29.70,29.46,16,7,21,0.12
2013-11-27,46,40,35,21,16,9,55,38,27,29.82,29.67,10,3,19,0.00
2013-11-28,54,42,32,28,22,19,60,46,27,29.76,29.67,7,1,9,0.00
2013-11-29,58,46,34,41,29,23,70,53,35,29.85,29.67,7,0,9,0.00
2013-11-30,65,54,42,47,41,32,79,64,50,29.67,29.46,7,1,12,0.08
2013-12-1,69,61,54,59,51,47,86,71,53,29.49,29.23,10,1,11,0.00
2013-12-2,67,57,47,51,44,39,78,65,41,29.23,28.99,5,0,7,0.20
2013-12-3,72,57,48,51,38,29,79,54,22,29.02,28.84,7,1,11,0.00
2013-12-4,74,61,51,45,40,30,64,46,31,29.23,28.90,11,2,15,0.00
2013-12-5,50,38,32,30,22,14,82,53,40,29.52,29.23,16,6,20,0.00
2013-12-6,34,30,26,30,23,16,86,75,65,29.85,29.46,10,0,11,0.20
2013-12-7,30,26,22,23,17,10,76,67,60,29.88,29.58,0,0,0,0.00
2013-12-8,38,34,30,30,26,22,77,72,64,29.58,29.38,5,0,7,0.16
2013-12-9,35,34,31,30,25,14,84,69,49,29.76,29.49,11,3,15,0.24
2013-12-10,39,31,25,20,14,8,60,48,39,29.85,29.67,9,3,13,0.08
2013-12-11,45,36,29,26,23,20,70,58,44,29.91,29.64,8,1,11,0.28
2013-12-12,48,40,32,30,25,20,62,53,42,29.94,29.64,6,0,9,0.00
2013-12-13,49,46,44,44,36,27,85,68,52,29.64,29.14,6,1,11,0.08
2013-12-14,49,44,36,45,33,22,89,67,45,29.67,29.11,15,4,22,0.08
2013-12-15,58,45,32,35,26,22,71,50,26,29.70,29.55,8,1,9,0.00
2013-12-16,63,51,40,33,29,27,62,45,26,29.58,29.46,7,1,9,0.20
2013-12-17,66,53,41,36,31,28,63,46,24,29.61,29.52,5,0,9,0.08
2013-12-18,68,55,42,45,37,32,73,53,28,29.58,29.32,8,2,13,0.00
2013-12-19,70,63,56,59,51,42,78,66,49,29.32,29.08,13,4,18,0.00
2013-12-20,68,56,38,61,49,32,83,76,53,29.20,29.08,15,4,18,0.00
2013-12-21,54,46,37,51,42,32,89,86,81,29.14,28.90,11,2,18,1.43
2013-12-22,46,40,34,43,27,20,89,62,43,29.73,29.11,19,7,22,0.08
2013-12-23,47,38,30,26,22,19,70,54,37,29.88,29.70,7,1,8,0.00
2013-12-24,52,41,31,29,25,19,65,53,38,29.88,29.58,7,1,9,0.00
2013-12-25,62,47,39,42,30,26,66,52,35,29.73,29.58,11,2,13,0.00
2013-12-26,52,43,35,31,28,26,69,55,36,29.79,29.67,6,1,8,0.00
2013-12-27,58,46,36,37,30,26,69,55,34,29.79,29.64,5,0,5,0.12
2013-12-28,60,50,39,44,34,30,75,56,36,29.64,29.29,8,1,11,0.00
2013-12-29,50,42,34,38,29,18,71,58,46,29.61,29.26,14,3,19,0.08
2013-12-30,44,37,32,18,14,11,52,40,30,29.73,29.58,12,3,13,0.00
2013-12-31,53,42,31,24,20,17,57,43,28,29.76,29.52,6,1,8,0.00
2014-1-1,66,49,37,39,29,18,59,47,27,29.55,29.20,18,4,21,0.00
2014-1-2,42,34,27,18,13,10,53,43,30,29.82,29.55,17,6,21,0.00